Vorticity
-0 29 -7 16 12 17 9 10 -12 11 9 7 -6 10 16 10 5 3 0 20 -0 1 6 1 14 18 11 11 17 16 21 16 6 10 7 11 15 13 10 8 6 4 5 3
74 23 7 19 -14 9 6 1 13 22 8 1 6 -1 -10 -1 -25 13 18 -11 11 6 1 3 1 1 0 9 8 15 10 8 5 4 13 10 8 4 8 7 4 2 2 8
43 40 24 32 14 -11 10 21 -3 4 19 17 11 16 8 7 25 7 2 18 18 9 3 5 -1 7 8 15 12 15 9 10 11 9 8 5 5 3 8 6 -0 10 11 6
-5 24 18 52 33 26 -25 3 6 9 -4 28 27 16 24 32 26 -3 23 14 17 13 11 4 -1 6 9 4 5 22 17 9 8 11 4 7 3 12 4 -0 14 6 7 11
8 19 -27 26 -3 59 19 14 10 24 -5 15 -6 2 3 7 7 29 12 19 2 13 2 0 7 6 9 9 -3 21 -0 5 13 11 6 8 5 7 10 12 7 7 9 11
15 6 5 40 30 -17 -9 9 -2 24 32 -36 21 7 -6 13 22 9 13 28 17 10 4 12 12 11 10 4 4 11 8 7 2 12 13 17 11 16 7 4 4 9 10 8
-4 18 59 -3 33 16 14 23 47 11 10 27 5 -1 32 5 17 17 -10 -7 5 -1 6 13 16 17 5 5 11 13 12 7 4 8 10 18 12 3 2 5 8 9 8 7
14 5 39 23 -1 15 18 30 10 -1 12 -12 -16 -0 26 23 20 -1 -5 -5 13 12 12 15 16 10 12 9 17 14 16 15 23 19 17 7 3 3 5 7 9 9 8 9
1 -21 -9 -9 29 -19 -6 20 19 -3 17 35 1 40 9 0 11 18 19 14 9 15 13 15 18 11 10 17 18 16 17 18 13 9 6 3 3 4 6 8 8 7 9 11
8 4 -10 18 23 40 -15 19 7 28 -1 4 3 21 21 29 -1 -7 1 11 6 6 9 15 16 13 12 16 15 13 12 9 6 5 4 5 6 7 7 8 9 8 10 13
2 3 5 4 2 23 27 -13 52 -13 21 13 2 1 11 37 8 0 -6 5 6 5 5 10 13 12 11 11 13 11 8 6 5 5 6 6 6 7 8 9 8 9 12 10
4 25 22 8 -2 47 -6 1 3 8 55 -21 -11 1 6 4 5 15 20 8 10 6 4 5 6 9 11 11 11 11 9 8 7 7 7 9 10 9 9 8 13 16 23 17
14 23 3 23 16 11 6 -2 -3 -13 16 -46 79 -45 6 22 3 4 5 12 9 19 12 7 8 8 9 11 11 12 10 10 9 10 11 11 9 7 11 11 9 11 -1 -4
13 2 7 8 5 -0 3 3 13 12 9 9 -0 -8 20 5 12 9 6 3 10 14 12 9 2 10 8 8 11 11 11 12 11 8 9 13 20 17 9 8 2 -6 12 18
10 16 11 8 8 8 3 2 4 10 5 2 2 27 7 8 14 8 8 6 9 8 17 -3 8 16 10 9 10 8 10 13 14 17 17 12 8 14 20 14 13 18 15 16
-3 5 5 3 4 3 5 9 10 5 15 27 21 20 19 9 14 13 14 12 5 0 8 -2 9 8 19 15 17 17 20 16 17 21 24 23 22 12 12 13 11 15 14 11
-1 -1 2 1 9 14 11 17 20 8 13 13 25 18 14 13 11 9 9 7 4 15 12 10 16 20 26 20 12 3 6 10 12 17 22 18 18 14 13 13 11 12 9 7
15 18 19 12 5 8 9 5 15 11 8 4 5 16 15 16 14 13 12 5 10 28 24 15 25 23 14 11 7 16 27 27 23 17 13 12 12 11 11 9 7 7 7 8
7 5 2 -0 2 5 4 2 2 3 3 3 6 12 14 18 14 12 21 23 28 17 15 14 7 4 11 23 26 20 14 12 12 11 10 9 8 6 4 5 6 7 7 7
9 6 6 7 8 30 26 24 20 22 26 29 36 21 17 19 20 22 24 20 15 13 11 11 19 27 19 14 11 10 11 10 9 8 6 5 5 5 6 7 8 8 8 8
35 35 34 31 34 36 32 36 39 34 31 20 15 19 19 21 17 12 9 11 22 27 23 16 12 10 11 12 10 8 6 5 4 5 5 5 7 7 8 8 9 9 9 9
24 27 28 27 26 29 24 21 20 21 20 19 19 17 16 17 14 12 11 9 11 12 12 12 10 8 6 5 4 4 4 4 4 6 7 8 8 9 9 9 10 11 12 14
5 5 5 4 6 7 8 7 8 7 8 10 10 10 10 11 12 11 10 10 9 7 6 6 5 5 4 4 5 5 6 7 7 8 10 11 12 13 14 15 15 16 16 16
9 9 10 11 9 8 9 11 10 11 10 10 9 8 7 7 6 5 6 5 5 5 5 5 5 6 7 8 8 8 9 11 12 14 16 16 15 15 17 20 20 20 20 21
7 9 9 8 8 9 10 9 8 7 7 7 6 6 6 6 5 5 6 6 7 7 7 7 8 9 9 10 12 13 15 16 16 16 16 19 20 19 19 20 22 24 23 21
9 8 7 6 6 7 6 7 7 7 7 7 7 7 7 7 8 8 8 8 9 8 8 9 10 13 15 17 17 17 17 17 17 17 17 17 17 17 19 19 18 17 16 17
5 4 5 6 6 7 7 7 7 7 7 7 7 8 9 9 9 9 9 10 12 14 16 18 18 17 16 18 17 14 14 15 14 15 15 16 17 16 15 14 14 14 14 15
Height
3019 3023 3027 3026 3028 3031 3030 3032 3033 3036 3035 3040 3043 3045 3047 3048 3049 3049 3051 3052 3053 3054 3055 3055 3055 3055 3056 3055 3056 3057 3057 3060 3062 3064 3065 3065 3067 3069 3071 3071 3072 3073 3074 3074
3008 3015 3018 3018 3022 3023 3024 3027 3026 3030 3029 3035 3037 3038 3040 3041 3044 3045 3045 3045 3047 3049 3049 3049 3051 3051 3051 3049 3051 3053 3053 3054 3057 3057 3059 3060 3062 3065 3063 3064 3066 3066 3067 3065
3004 3009 3013 3010 3000 3014 3018 3021 3022 3022 3027 3031 3030 3031 3033 3034 3035 3037 3040 3039 3039 3042 3043 3043 3045 3045 3045 3044 3045 3046 3046 3047 3049 3051 3053 3054 3054 3055 3057 3058 3059 3059 3057 3056
3009 3008 3005 2986 3001 3006 3010 3011 3015 3018 3021 3023 3023 3026 3025 3025 3028 3030 3032 3032 3032 3035 3038 3037 3037 3038 3039 3039 3039 3038 3039 3041 3042 3042 3043 3045 3047 3048 3050 3050 3050 3049 3048 3047
3013 3004 2996 2989 2994 2997 3003 3003 3008 3010 3015 3017 3019 3018 3017 3019 3021 3024 3024 3026 3027 3027 3029 3031 3031 3030 3031 3032 3033 3034 3034 3034 3035 3036 3037 3038 3038 3040 3041 3041 3040 3039 3038 3036
3007 3009 2999 2985 2992 2998 2999 2996 3003 3005 3008 3011 3011 3008 3012 3013 3014 3017 3018 3019 3022 3024 3024 3024 3024 3024 3025 3025 3025 3026 3027 3027 3028 3028 3029 3030 3031 3032 3032 3031 3030 3029 3028 3026
2999 3001 2988 2984 2986 2993 2995 2994 2999 2999 2999 3002 3003 3006 3007 3007 3008 3010 3011 3014 3016 3016 3016 3015 3015 3016 3017 3017 3017 3017 3018 3020 3021 3021 3021 3021 3023 3024 3024 3023 3022 3020 3019 3017
2988 2991 2986 2978 2981 2986 2990 2990 2992 2992 2991 2994 2996 2997 3000 3001 3002 3003 3005 3007 3008 3008 3008 3008 3008 3009 3009 3009 3009 3010 3011 3012 3013 3013 3014 3015 3016 3016 3015 3014 3012 3011 3009 3007
2982 2981 2983 2978 2977 2974 2980 2981 2981 2985 2985 2986 2989 2992 2995 2996 2997 2997 2998 3000 3001 3001 3001 3002 3001 3002 3002 3001 3002 3003 3004 3005 3006 3006 3006 3006 3006 3006 3005 3004 3003 3001 2999 2997
2978 2974 2979 2977 2974 2972 2977 2977 2977 2978 2979 2981 2982 2987 2989 2989 2990 2990 2992 2994 2994 2993 2993 2994 2995 2995 2995 2994 2995 2996 2997 2997 2997 2998 2998 2998 2997 2996 2995 2994 2992 2990 2988 2987
2970 2973 2974 2972 2972 2970 2972 2970 2973 2973 2974 2975 2976 2979 2983 2982 2983 2984 2984 2987 2987 2986 2986 2985 2985 2985 2985 2985 2986 2988 2988 2988 2989 2989 2989 2989 2988 2986 2985 2983 2981 2980 2978 2977
2962 2966 2966 2967 2967 2966 2968 2968 2969 2969 2968 2967 2971 2972 2974 2977 2978 2978 2978 2979 2978 2978 2978 2977 2976 2976 2976 2976 2977 2978 2979 2980 2979 2979 2978 2978 2977 2976 2974 2973 2971 2969 2967 2965
2958 2961 2963 2963 2962 2960 2961 2962 2965 2965 2965 2962 2965 2962 2970 2972 2971 2971 2969 2970 2971 2971 2970 2970 2969 2968 2967 2967 2967 2967 2968 2968 2968 2967 2967 2967 2966 2965 2964 2962 2960 2957 2953 2953
2950 2953 2955 2954 2954 2955 2957 2956 2957 2958 2958 2959 2959 2960 2961 2962 2962 2963 2963 2964 2963 2962 2962 2963 2962 2961 2959 2957 2957 2958 2958 2959 2959 2958 2957 2957 2955 2954 2951 2947 2946 2949 2949 2946
2943 2944 2945 2946 2948 2950 2950 2951 2951 2952 2952 2952 2951 2951 2953 2953 2954 2956 2956 2956 2955 2955 2954 2953 2952 2951 2949 2948 2948 2949 2948 2948 2949 2949 2948 2947 2946 2945 2945 2945 2943 2941 2939 2937
2940 2941 2943 2943 2942 2943 2944 2944 2945 2945 2944 2944 2943 2943 2943 2945 2946 2947 2948 2947 2947 2946 2944 2943 2942 2941 2940 2939 2940 2941 2941 2941 2941 2941 2940 2939 2938 2937 2935 2934 2933 2931 2930 2928
2934 2936 2936 2935 2936 2938 2940 2940 2940 2939 2938 2937 2937 2937 2937 2939 2939 2940 2940 2938 2937 2935 2932 2933 2933 2933 2933 2933 2933 2934 2933 2932 2931 2931 2930 2929 2928 2928 2927 2925 2924 2923 2920 2918
2927 2929 2930 2931 2932 2934 2935 2935 2935 2933 2932 2931 2931 2931 2931 2931 2931 2930 2930 2929 2927 2926 2925 2924 2925 2925 2926 2926 2925 2924 2924 2922 2922 2923 2922 2921 2920 2920 2919 2918 2916 2913 2910 2907
2923 2924 2926 2927 2926 2928 2927 2927 2926 2925 2924 2924 2924 2925 2925 2925 2924 2923 2923 2921 2920 2920 2919 2918 2918 2919 2919 2918 2917 2916 2916 2916 2916 2916 2915 2914 2913 2912 2911 2908 2905 2902 2898 2894
2916 2917 2917 2918 2918 2917 2916 2915 2914 2915 2916 2916 2915 2915 2915 2915 2915 2914 2914 2914 2914 2914 2914 2913 2912 2913 2913 2913 2912 2912 2911 2911 2910 2909 2908 2907 2905 2902 2899 2896 2893 2889 2885 2881
2910 2910 2909 2910 2911 2909 2907 2907 2907 2907 2907 2907 2908 2909 2910 2910 2910 2909 2910 2910 2909 2909 2909 2909 2909 2909 2909 2909 2908 2907 2906 2905 2903 2901 2899 2897 2894 2890 2887 2883 2880 2875 2871 2866
2909 2909 2910 2911 2910 2908 2908 2908 2908 2907 2906 2907 2908 2909 2909 2909 2909 2909 2908 2908 2908 2907 2907 2906 2906 2906 2905 2904 2902 2901 2899 2897 2894 2891 2888 2885 2882 2878 2873 2869 2865 2861 2856 2851
2911 2912 2913 2913 2913 2913 2912 2911 2910 2909 2909 2910 2911 2910 2910 2909 2909 2908 2907 2906 2906 2905 2904 2903 2901 2900 2899 2897 2895 2892 2890 2887 2883 2880 2876 2872 2868 2863 2859 2854 2850 2845 2841 2836
2913 2914 2914 2915 2914 2913 2913 2911 2911 2911 2911 2911 2911 2910 2910 2909 2908 2907 2906 2905 2904 2902 2900 2898 2896 2894 2891 2888 2885 2882 2879 2875 2871 2867 2863 2859 2855 2850 2845 2840 2835 2830 2826 2821
2917 2917 2918 2918 2917 2916 2915 2914 2914 2913 2913 2912 2911 2910 2908 2907 2906 2904 2903 2901 2899 2897 2894 2891 2888 2885 2882 2878 2875 2871 2868 2864 2860 2857 2852 2848 2843 2838 2833 2829 2824 2820 2815 2811
2918 2918 2918 2918 2917 2916 2914 2913 2912 2911 2910 2909 2907 2905 2904 2902 2900 2898 2896 2894 2891 2889 2886 2883 2880 2876 2873 2869 2866 2862 2858 2854 2850 2846 2842 2837 2833 2829 2825 2821 2816 2812 2808 2803
2918 2917 2916 2915 2914 2913 2912 2911 2909 2908 2906 2904 2902 2900 2898 2896 2894 2892 2889 2887 2884 2880 2877 2873 2870 2867 2864 2860 2857 2853 2850 2846 2842 2838 2834 2830 2826 2822 2818 2814 2811 2807 2802 2798